User: anonymous   Login
Location: Unspecified
(0.0000°N, 0.0000°E)
Time: 00:11:28
(UTC+00:00)
Language:

AMICALSAT - Orbit

View from above orbital plane
View from above orbital plane
View from above satellite
View from above satellite

Ground track
Ground track

The orbit data is extracted from the following two-line orbital elements,

1 46287U 20061R   21207.45946439  .00001061  00000-0  68121-4 0  9992
2 46287  97.4861 279.8703 0002080 359.0300   1.0926 15.10557675 49238
Epoch (UTC): 26 July 2021 11:01:37
Eccentricity: 0.0002080
inclination: 97.4861°
perigee height: 533 km
apogee height: 536 km
right ascension of ascending node: 279.8703°
argument of perigee: 359.0300°
revolutions per day: 15.10557675
mean anomaly at epoch: 1.0926°
orbit number at epoch: 4923

The dashed part of the orbit path shows where the satellite is in the earth's shadow,  

DLR